Theta_e
316 316 316 316 316 316 316 317 317 317 318 318 319 319 318 317 318 316 304 311 314 326 326 320 316 316 315 311 311 308 304 302 304 303 307 313 317 312 320 318 323 330 335 340 346
315 316 316 315 315 315 316 316 316 317 317 318 318 319 318 319 313 307 318 321 326 330 312 312 310 312 309 309 310 307 303 303 307 309 308 313 310 310 310 312 318 324 340 342 343
315 315 315 315 315 315 315 315 316 317 317 318 318 318 318 318 303 302 323 327 330 329 314 310 313 310 306 307 307 306 303 306 307 308 311 309 308 311 310 310 318 319 336 339 340
314 315 315 315 315 315 315 315 316 316 317 317 317 317 318 314 295 307 333 330 332 318 311 308 309 306 304 303 305 302 305 307 308 309 308 307 309 309 310 314 315 322 340 341 338
314 314 314 314 314 314 314 315 315 316 316 316 316 317 314 301 301 308 331 336 324 314 309 308 305 304 302 304 303 302 304 305 308 309 308 308 307 307 308 313 314 326 342 339 339
314 314 314 314 314 314 315 315 315 315 315 315 317 317 308 297 306 321 323 320 323 311 306 309 307 308 304 303 303 304 303 304 306 306 307 305 307 307 311 315 313 330 339 341 340
314 314 314 314 313 314 315 315 315 315 316 316 318 316 304 302 307 310 313 317 316 310 305 309 309 307 306 302 304 302 300 303 303 305 304 307 303 304 310 313 314 324 335 340 342
313 313 313 314 314 314 315 315 316 318 317 318 319 315 301 308 310 309 312 315 314 312 309 311 309 306 304 304 301 299 299 296 302 303 304 305 299 308 311 311 316 317 328 338 340
313 312 312 313 313 314 314 314 320 320 320 320 314 306 302 314 308 312 312 309 312 312 311 310 310 305 303 300 297 297 294 295 298 302 303 303 301 307 309 312 310 315 324 336 340
313 312 312 313 314 314 313 314 321 320 319 319 315 303 306 304 309 311 311 312 308 308 306 305 302 300 299 298 291 293 293 295 296 300 301 300 300 305 307 312 313 317 327 336 339
312 312 312 313 313 313 310 310 303 302 303 300 301 302 302 307 311 309 310 308 308 306 301 301 297 294 297 298 299 297 295 295 297 300 298 300 300 303 306 307 311 317 320 329 338
312 312 312 312 313 313 307 303 302 303 296 302 300 300 303 306 300 305 310 305 303 300 299 297 295 300 300 298 296 296 295 295 298 299 298 299 298 302 304 305 308 314 318 322 333
310 311 312 312 312 308 304 302 305 302 297 299 303 304 305 305 301 303 307 304 302 299 298 297 298 301 297 296 294 295 294 295 295 298 298 297 297 300 304 306 308 310 313 318 323
310 310 311 310 307 304 303 305 305 303 295 296 301 303 305 305 301 307 306 303 300 300 298 297 300 298 296 296 297 293 297 297 296 295 291 298 290 298 301 302 305 308 311 314 321
310 310 310 310 305 302 303 305 305 305 284 299 299 307 304 301 301 302 305 303 298 298 298 297 296 295 295 297 298 296 299 297 297 295 293 295 292 297 299 300 304 307 309 313 317
309 310 309 308 303 304 304 303 307 295 284 294 297 297 298 298 299 301 300 303 301 298 299 297 301 299 299 300 299 300 297 296 295 295 289 295 293 294 298 301 304 308 309 311 314
308 308 307 308 299 304 302 306 293 287 295 290 291 295 294 293 296 296 294 293 293 292 292 296 297 300 302 299 299 299 296 289 287 287 287 296 292 296 302 303 304 306 306 308 309
306 306 306 306 305 302 304 300 286 288 288 293 292 294 290 292 293 293 292 290 292 292 293 290 290 295 300 298 297 298 297 290 283 285 288 293 290 297 304 308 309 310 311 312 312
304 303 307 305 303 303 302 291 288 288 291 290 291 289 289 290 290 293 289 288 289 293 289 289 290 296 299 298 298 296 293 297 293 292 289 292 296 299 307 306 307 309 311 311 313
299 299 303 304 301 303 296 288 289 292 292 292 286 288 285 286 287 289 288 288 287 292 294 289 286 292 294 298 297 296 296 292 293 286 284 290 292 295 300 301 304 305 306 309 313
299 297 303 302 303 297 289 288 290 293 294 290 288 286 286 284 285 286 286 287 289 290 292 289 288 288 291 289 289 292 293 292 293 292 288 286 291 301 300 301 301 303 306 307 310
297 293 302 301 292 290 288 289 292 290 293 290 290 288 286 285 284 285 285 286 292 292 286 288 288 283 285 290 291 290 287 288 289 289 291 291 292 298 299 301 303 302 304 307 309
292 293 301 300 287 287 290 289 291 290 289 289 287 289 289 285 282 285 285 289 291 290 286 287 284 278 280 287 290 286 286 286 287 289 287 288 291 297 297 299 300 301 303 306 309
294 290 294 294 291 288 286 287 288 292 289 290 288 289 287 285 287 284 284 288 290 290 292 291 286 281 277 280 285 281 284 284 283 282 286 287 290 295 296 294 297 299 302 306 309
292 288 289 286 288 288 287 287 286 287 291 290 288 287 286 283 284 284 285 287 289 290 290 288 281 282 283 284 283 282 282 282 281 283 281 285 285 290 294 292 293 299 301 305 308
290 289 291 288 288 287 286 286 286 287 288 287 286 288 288 285 286 284 285 286 286 288 287 287 282 283 281 284 283 281 283 283 283 283 283 284 283 290 292 294 295 298 299 303 306
294 293 290 286 286 286 286 286 286 288 290 290 289 288 287 288 291 292 292 291 290 288 286 285 284 281 278 281 281 278 283 284 284 286 285 281 287 291 290 292 295 296 297 299 304
Wind_Speed
21 21 21 21 20 20 19 18 17 15 13 11 11 9 7 5 4 4 8 8 8 6 9 10 7 7 3 3 2 3 5 9 11 10 6 4 4 1 2 6 5 4 3 2 21
22 21 21 21 20 19 18 17 17 15 14 12 11 9 7 5 2 9 9 8 9 12 7 11 12 13 6 5 5 6 6 10 5 8 7 5 3 0 4 6 8 7 9 14 18
23 23 22 21 20 19 18 17 16 15 14 12 10 8 5 3 5 4 6 14 14 10 8 3 11 10 10 4 8 7 14 9 7 10 4 4 5 5 3 10 8 8 7 14 16
24 24 24 23 22 20 18 17 16 14 13 10 9 6 4 2 4 2 5 14 14 12 12 10 9 10 10 12 6 8 10 10 5 4 5 7 5 7 8 11 7 10 11 15 16
25 25 25 24 23 21 19 17 15 14 12 9 6 4 2 2 8 0 2 3 14 13 15 13 13 6 11 9 6 11 9 5 12 14 13 14 16 11 15 16 5 5 17 18 18
24 24 24 25 24 22 19 16 14 12 10 7 4 5 2 5 3 6 9 6 13 16 16 11 11 5 6 5 12 3 8 13 12 16 11 12 18 8 17 13 3 7 16 17 20
25 25 25 24 24 23 19 16 13 11 7 6 7 3 2 13 4 4 5 2 15 11 16 10 5 10 8 4 4 3 8 9 10 9 9 10 17 12 20 11 5 9 13 15 18
26 26 26 25 24 22 20 17 12 1 7 8 10 1 8 3 3 7 5 5 10 6 6 9 6 4 1 0 1 3 3 9 4 8 8 14 21 14 18 7 22 17 11 12 15
26 27 27 26 24 21 17 14 4 9 12 14 5 1 8 6 4 3 5 8 10 0 4 8 5 1 3 5 6 3 8 7 5 3 2 12 10 8 10 15 19 21 15 11 12
28 28 27 26 23 19 14 3 10 9 7 4 1 4 5 2 4 2 2 14 6 12 6 5 4 6 5 8 13 9 8 5 6 3 1 4 9 11 14 14 17 22 14 13 14
30 29 28 25 22 16 4 2 4 1 2 5 8 6 16 10 5 1 4 4 7 5 8 5 7 10 11 14 13 9 7 9 3 5 6 10 10 14 14 13 16 21 20 12 15
30 30 28 26 21 14 3 7 5 4 12 7 11 10 11 7 4 3 6 8 7 9 8 6 11 14 13 10 11 10 11 10 9 9 7 10 12 14 16 14 15 16 17 20 15
30 30 29 24 20 3 3 7 4 3 4 6 3 3 4 4 1 4 3 3 7 9 14 12 5 14 10 8 10 11 13 9 11 9 5 9 17 14 14 14 16 19 21 21 22
30 29 27 29 1 4 0 7 8 7 2 4 4 5 7 1 3 4 7 5 5 14 9 8 8 10 10 12 13 13 13 14 12 8 10 3 9 7 7 10 12 18 19 21 22
30 29 23 12 4 3 9 13 2 4 5 7 5 4 6 5 8 4 7 4 7 4 5 9 7 10 11 16 16 13 12 15 13 9 5 11 8 6 5 11 14 16 18 19 20
30 27 18 0 3 4 12 9 3 1 4 4 6 10 8 9 8 10 8 8 2 2 3 5 5 2 7 8 13 4 5 3 2 5 11 13 10 10 9 8 9 10 14 14 15
33 26 7 3 9 16 9 2 2 4 5 5 5 7 5 8 7 11 6 13 8 6 7 6 2 3 6 6 4 10 7 7 8 9 16 5 9 15 10 8 7 11 13 11 9
33 18 0 3 11 9 2 2 5 1 2 2 3 3 4 9 5 7 3 5 10 6 2 4 6 6 8 4 4 5 11 10 13 13 14 4 11 6 6 8 8 8 11 10 10
21 4 2 10 11 3 2 2 2 2 2 5 4 1 2 3 5 4 6 4 6 9 5 3 5 2 4 6 4 3 7 6 9 3 8 9 13 9 10 15 16 16 15 17 16
5 4 4 18 8 1 4 3 2 1 1 0 2 3 2 6 5 5 3 4 5 6 3 3 7 2 4 4 2 3 4 4 5 12 15 10 10 2 10 13 14 15 16 17 17
3 4 8 16 2 6 3 2 1 3 1 2 1 0 1 3 3 2 2 4 4 4 4 3 3 1 2 7 6 3 2 1 3 5 10 13 8 3 6 9 11 13 15 17 17
5 3 9 10 6 3 2 4 5 2 3 3 2 2 1 1 1 2 1 1 3 3 1 4 4 5 3 7 9 4 3 2 5 10 4 8 5 5 6 7 9 13 15 17 17
5 4 6 6 5 4 4 3 3 4 3 1 2 0 1 2 2 2 0 2 3 2 2 2 2 4 5 5 3 3 3 3 0 0 6 7 5 4 9 10 12 13 15 17 17
3 5 4 6 3 3 5 3 4 6 3 3 2 2 2 2 2 1 3 2 2 2 3 1 2 5 5 5 4 4 5 3 3 4 3 10 10 11 9 14 17 16 15 15 16
4 3 2 5 4 4 3 3 4 5 6 6 3 5 1 3 3 5 3 2 2 3 3 2 5 3 8 12 11 13 13 9 10 10 8 10 15 17 17 20 18 13 15 14 14
3 3 2 2 5 5 2 2 4 5 5 4 3 8 5 5 5 5 3 4 5 2 4 2 5 4 12 14 16 19 18 15 15 15 16 17 24 17 19 15 13 12 12 12 12
1 1 2 2 3 4 3 4 3 8 4 1 7 8 6 4 6 9 9 10 11 8 8 6 5 4 5 2 4 13 18 19 10 12 13 14 17 11 15 14 13 14 13 16 12
Wind_Direction
353 351 349 345 342 339 336 334 330 325 321 319 314 309 306 305 284 165 235 227 178 248 170 132 134 159 136 149 162 162 228 227 217 204 227 167 191 73 59 274 254 220 183 64 144
350 348 344 341 338 337 333 329 326 322 320 319 315 309 308 312 246 237 241 214 209 168 151 156 164 155 169 177 176 214 223 223 248 221 232 212 217 274 301 300 287 274 96 127 145
347 345 342 338 335 333 330 327 324 319 317 316 313 306 294 282 271 226 272 190 186 170 229 173 149 164 190 179 179 180 232 222 252 244 278 252 268 214 243 290 241 293 182 150 155
344 342 339 336 334 331 326 323 319 314 310 306 303 293 277 243 299 119 147 182 183 171 144 172 162 174 188 196 179 224 235 232 249 234 283 284 317 273 199 246 305 305 177 164 174
341 339 337 335 333 328 323 319 314 309 301 294 290 259 214 244 253 109 17 163 172 180 171 160 174 161 194 195 184 232 231 215 245 275 291 301 285 276 268 266 309 283 168 180 180
336 336 334 334 330 326 320 315 309 299 284 271 219 180 203 262 113 128 126 114 160 170 180 168 178 169 158 189 208 253 224 246 256 254 259 269 275 294 279 246 226 193 197 192 188
336 334 333 332 330 325 320 317 308 290 260 224 178 188 203 253 129 246 230 217 164 176 167 178 143 193 151 180 238 286 261 251 233 229 229 225 257 243 259 270 228 219 219 204 202
338 334 332 331 330 327 325 325 323 349 144 159 157 230 255 229 264 273 183 82 158 133 157 157 136 120 238 78 299 258 234 240 195 186 224 199 247 247 258 268 261 236 233 218 203
337 335 333 332 330 329 327 323 71 97 121 136 141 236 268 316 273 82 171 143 164 201 130 145 169 176 179 241 256 218 243 220 253 196 206 205 243 230 295 271 240 246 224 211 221
338 336 334 332 330 329 323 239 121 114 127 191 231 273 257 2 316 125 149 154 138 145 129 136 131 175 160 211 228 233 229 233 247 150 230 218 269 290 295 289 241 222 198 185 203
336 337 334 335 333 331 316 169 348 13 343 250 275 273 284 292 287 81 138 159 126 166 174 172 196 212 216 216 234 255 263 263 239 247 283 274 264 274 279 288 273 233 215 205 195
337 337 338 334 332 326 275 71 76 308 300 261 254 261 275 272 283 319 176 182 186 202 135 164 224 215 222 216 221 234 254 252 278 260 220 275 257 263 266 263 263 257 236 215 216
339 338 337 333 322 5 42 86 341 215 264 308 230 279 338 154 253 352 304 187 205 185 200 216 203 217 197 198 207 223 232 238 260 293 245 269 270 240 250 232 249 256 253 242 223
339 338 338 329 355 339 319 349 321 189 323 316 6 37 2 170 81 12 12 264 225 233 200 233 233 201 188 213 207 239 211 234 254 259 273 236 277 249 257 237 235 239 249 239 228
337 337 339 345 310 316 324 332 301 201 308 17 7 346 358 55 323 44 18 255 252 237 198 221 198 194 217 226 201 247 212 216 240 248 254 231 259 263 237 249 243 242 246 253 241
336 336 335 175 275 290 324 316 214 212 248 14 11 358 4 22 9 331 4 29 46 296 345 311 313 256 261 250 201 196 181 109 137 219 243 244 245 263 247 251 257 246 251 242 241
334 332 323 317 326 319 314 200 192 219 3 19 351 350 355 358 17 10 40 43 21 336 20 331 49 2 18 276 174 196 184 226 222 210 246 222 232 258 299 350 348 328 330 346 325
331 325 222 243 321 317 261 126 210 58 14 16 348 323 34 5 27 20 33 34 32 357 22 341 196 14 350 14 320 244 221 216 232 239 253 161 240 241 41 25 18 10 356 356 352
327 328 316 336 335 291 209 167 143 177 324 334 318 18 59 32 351 15 60 35 28 12 330 289 241 337 330 339 322 136 225 348 248 278 238 235 240 179 43 30 23 21 14 2 352
334 325 335 338 345 19 73 102 130 9 339 49 282 11 315 355 346 19 30 21 354 19 350 21 280 72 321 315 78 360 22 203 218 229 234 217 239 254 12 9 4 13 10 360 353
352 347 360 339 10 49 73 85 71 51 165 13 152 225 68 356 335 342 48 72 6 358 50 352 247 290 264 13 309 295 209 317 284 274 252 244 207 23 8 6 0 1 2 357 350
340 329 353 337 50 24 58 335 336 347 27 74 98 107 197 65 308 258 229 87 356 18 1 16 294 275 43 118 51 54 63 50 257 208 265 288 179 68 41 14 6 7 0 356 348
350 298 347 349 49 18 331 325 321 354 46 91 129 168 162 157 285 251 210 164 22 25 18 355 209 283 177 206 193 60 45 18 261 157 239 261 180 64 25 15 7 357 351 353 352
341 335 5 41 44 3 349 1 326 3 75 19 111 122 141 205 215 261 256 204 294 253 109 218 255 275 300 353 338 278 273 292 273 253 266 248 293 281 320 341 342 347 347 347 354
9 64 29 346 24 350 299 328 314 349 12 12 108 49 279 237 233 262 236 277 255 290 138 310 282 265 280 289 283 284 271 261 244 250 246 289 285 283 296 309 306 309 338 339 356
357 352 23 329 303 313 355 33 23 3 334 3 46 350 316 252 260 283 287 267 273 168 170 157 262 267 281 265 267 277 268 249 248 248 261 271 273 282 285 291 282 286 318 334 335
59 115 279 54 341 309 27 20 332 329 274 318 21 344 317 302 317 289 272 268 262 243 237 236 256 224 260 241 269 270 262 249 233 235 227 248 258 287 284 276 277 290 302 302 310